{"data":{"norad_id":62714,"epoch":"2026-05-25T02:32:48.117408Z","epoch_age_seconds":66077,"freshness":"FRESH","line1":"1 62714U 25009DK  26145.10611247  .00003712  00000+0  32265-3 0  9999","line2":"2 62714  97.7050 225.5249 0001745 150.0183 210.1139 14.97588252 74025","mean_motion":14.97588252,"eccentricity":0.0001745,"inclination_deg":97.705,"raan_deg":225.5249,"arg_perigee_deg":150.0183,"mean_anomaly_deg":210.1139,"bstar":0.00032265,"rev_number":7402,"period_min":96.15460044354,"perigee_km":573.13742305765,"apogee_km":575.56384124127,"semimajor_km":6952.4876321495,"source":"CELESTRAK","updated_at":"2026-05-25T13:38:03.208513Z"}}